Weather History for Sexton Summit, OR

Change the Weather History Date:

Thursday, January 24, 2013

  Actual Average Record
Temperature  
Mean Temperature 40 °F -  
Max Temperature 44 °F 39 °F 57 °F (2005)
Min Temperature 37 °F 31 °F 21 °F (1997)
Degree Days  
Heating Degree Days 24    
Moisture  
Dew Point 38 °F    
Average Humidity 96    
Maximum Humidity 100    
Minimum Humidity 82    
Precipitation  
Precipitation 0.08 in - - ()
Sea Level Pressure  
Sea Level Pressure 30.13 in    
Wind  
Wind Speed 8 mph (South)    
Max Wind Speed 15 mph    
Max Gust Speed 21 mph    
Visibility 3 miles    
Events Fog , Rain    
Averages and records for this station are not official NWS values.
T = Trace of Precipitation, MM = Missing Value Source: NWS Daily Summary

Daily Weather History Graph

Daily Weather History Graph

Search for Another Location

Airport:

Trip Planner

Search our weather history database for the weather conditions in past years. The results will help you decide how hot, cold, wet, or windy it might be!

Date:

Astronomy

Jan. 24, 2013 Rise Set
Actual Time 7:34 AM PST 5:17 PM PST
Civil Twilight 7:04 AM PST 5:47 PM PST
Nautical Twilight 6:29 AM PST 6:21 PM PST
Astronomical Twilight 5:56 AM PST 6:55 PM PST
Moon 3:23 PM PST (1/24) 5:37 AM PST (1/24)
Length of Visible Light 10h 43m
Length of Day
9h 42m
Waxing Gibbous, 95% of the Moon is Illuminated
Jan 24
Waxing Gibbous
Jan 26
Full
Feb 3
Last Quarter
Feb 9
New
Feb 17
First Quarter

Hourly Weather History & Observations

Time (PST) Temp. Windchill Dew Point Humidity Pressure Visibility Wind Dir Wind Speed Gust Speed Precip Events Conditions
12:14 AM 37.4 °F - 37.4 °F 100% 30.08 in 0.2 mi Calm Calm - N/A Fog Fog
12:26 AM 37.4 °F 34.9 °F 37.4 °F 100% 30.09 in 0.2 mi SE 3.5 mph - N/A Fog Fog
12:52 AM 37.4 °F 34.9 °F 37.4 °F 100% 30.09 in 0.2 mi SSE 3.5 mph - 0.00 in Fog , Rain Light Rain
12:56 AM 37.9 °F 35.5 °F 37.0 °F 97% 30.12 in 0.2 mi SSE 3.5 mph - 0.00 in Fog , Rain Light Rain
1:25 AM 37.4 °F 33.8 °F 37.4 °F 100% 30.09 in 0.5 mi SSE 4.6 mph - 0.01 in Fog , Rain Light Rain
1:38 AM 37.4 °F 32.8 °F 37.4 °F 100% 30.10 in 0.2 mi SSE 5.8 mph - 0.01 in Fog , Rain Light Rain
1:53 AM 37.4 °F 32.8 °F 37.4 °F 100% 30.10 in 0.5 mi SSE 5.8 mph - 0.01 in Fog , Rain Light Rain
1:56 AM 37.9 °F 33.5 °F 37.0 °F 97% 30.12 in 0.5 mi SSE 5.8 mph - 0.01 in Fog , Rain Light Rain
2:04 AM 37.4 °F 32.8 °F 37.4 °F 100% 30.10 in 0.5 mi South 5.8 mph - 0.00 in Fog , Rain Light Rain
2:35 AM 37.4 °F 32.8 °F 37.4 °F 100% 30.10 in 0.2 mi SSE 5.8 mph - 0.01 in Fog , Rain Light Rain
2:48 AM 37.4 °F 32.1 °F 37.4 °F 100% 30.10 in 0.5 mi SSE 6.9 mph - 0.01 in Fog , Rain Light Rain
2:56 AM 37.9 °F 32.7 °F 37.0 °F 97% 30.12 in 0.2 mi SSE 6.9 mph - 0.02 in Fog , Rain Light Rain
3:39 AM 37.4 °F 30.3 °F 37.4 °F 100% 30.09 in 0.5 mi South 10.4 mph - 0.01 in Fog Fog
3:42 AM 37.4 °F 30.3 °F 37.4 °F 100% 30.09 in 0.2 mi South 10.4 mph - 0.01 in Fog Fog
3:56 AM 37.9 °F 30.9 °F 37.0 °F 97% 30.12 in 0.2 mi South 10.4 mph - 0.01 in Fog Fog
4:14 AM 37.4 °F 29.8 °F 37.4 °F 100% 30.09 in 0.5 mi South 11.5 mph 17.3 mph N/A Fog Fog
4:32 AM 37.4 °F 30.3 °F 37.4 °F 100% 30.09 in 0.2 mi South 10.4 mph - N/A Fog Fog
4:41 AM 37.4 °F 29.8 °F 37.4 °F 100% 30.09 in 0.5 mi South 11.5 mph - N/A Fog Fog
4:56 AM 37.9 °F 31.5 °F 37.9 °F 100% 30.13 in 1.0 mi South 9.2 mph - N/A   Overcast
5:10 AM 39.2 °F 32.5 °F 37.4 °F 93% 30.10 in 2.0 mi South 10.4 mph - N/A   Overcast
5:16 AM 37.4 °F 30.3 °F 37.4 °F 100% 30.10 in 1.2 mi South 10.4 mph - N/A   Overcast
5:32 AM 37.4 °F 30.3 °F 37.4 °F 100% 30.10 in 0.5 mi South 10.4 mph - N/A Fog Fog
5:48 AM 37.4 °F 29.8 °F 37.4 °F 100% 30.10 in 0.2 mi South 11.5 mph - N/A Fog Fog
5:56 AM 37.9 °F 30.9 °F 37.0 °F 97% 30.13 in 0.2 mi South 10.4 mph - N/A Fog Fog
6:14 AM 37.4 °F 29.8 °F 37.4 °F 100% 30.10 in 0.8 mi South 11.5 mph - N/A   Overcast
6:32 AM 37.4 °F 30.8 °F 37.4 °F 100% 30.10 in 0.2 mi South 9.2 mph - N/A Fog Fog
6:56 AM 37.9 °F 32.1 °F 37.0 °F 97% 30.15 in 0.2 mi SSE 8.1 mph - N/A Fog Fog
7:56 AM 37.9 °F 31.5 °F 37.0 °F 97% 30.14 in 0.2 mi SSE 9.2 mph - N/A Fog Fog
8:24 AM 37.4 °F 30.8 °F 37.4 °F 100% 30.11 in 0.5 mi South 9.2 mph - N/A Fog Fog
8:46 AM 39.2 °F 33.0 °F 37.4 °F 93% 30.12 in 1.5 mi South 9.2 mph - N/A   Overcast
8:54 AM 37.4 °F 30.8 °F 37.4 °F 100% 30.12 in 0.2 mi South 9.2 mph - N/A Fog Fog
8:56 AM 37.9 °F 32.1 °F 37.9 °F 100% 30.15 in 0.2 mi South 8.1 mph - N/A Fog Fog
9:08 AM 39.2 °F 32.5 °F 37.4 °F 93% 30.12 in 1.0 mi South 10.4 mph - N/A   Overcast
9:10 AM 39.2 °F 33.0 °F 37.4 °F 93% 30.12 in 2.0 mi South 9.2 mph - N/A   Overcast
9:17 AM 39.2 °F 33.0 °F 37.4 °F 93% 30.13 in 10.0 mi South 9.2 mph - N/A   Mostly Cloudy
9:26 AM 39.2 °F 33.0 °F 37.4 °F 93% 30.13 in 2.5 mi South 9.2 mph - N/A   Mostly Cloudy
9:35 AM 39.2 °F 33.0 °F 39.2 °F 100% 30.13 in 10.0 mi South 9.2 mph - N/A   Mostly Cloudy
9:56 AM 41.0 °F 35.2 °F 41.0 °F 100% 30.17 in 10.0 mi South 9.2 mph - N/A   Partly Cloudy
10:09 AM 41.0 °F 35.2 °F 41.0 °F 100% 30.13 in 2.5 mi SSE 9.2 mph - N/A   Scattered Clouds
10:13 AM 41.0 °F 35.2 °F 39.2 °F 93% 30.13 in 1.0 mi SSE 9.2 mph - N/A   Mist
10:21 AM 42.8 °F 36.6 °F 41.0 °F 93% 30.13 in 0.5 mi SSE 11.5 mph - N/A Fog Fog
10:33 AM 41.0 °F 35.2 °F 41.0 °F 100% 30.13 in 1.2 mi South 9.2 mph - N/A   Overcast
10:37 AM 42.8 °F 37.0 °F 39.2 °F 87% 30.13 in 2.0 mi South 10.4 mph - N/A   Mostly Cloudy
10:47 AM 41.0 °F 34.3 °F 39.2 °F 93% 30.14 in 4.0 mi South 11.5 mph 17.3 mph N/A   Mostly Cloudy
10:56 AM 42.1 °F 36.1 °F 39.9 °F 92% 30.17 in 10.0 mi South 10.4 mph 17.3 mph N/A   Scattered Clouds
11:56 AM 43.0 °F 36.8 °F 39.0 °F 86% 30.16 in 10.0 mi SSW 11.5 mph 17.3 mph N/A   Clear
12:48 PM 42.8 °F 36.6 °F 39.2 °F 87% 30.12 in 10.0 mi South 11.5 mph - N/A   Partly Cloudy
12:56 PM 44.1 °F 39.0 °F 39.0 °F 82% 30.14 in 10.0 mi South 9.2 mph - N/A   Partly Cloudy
1:56 PM 44.1 °F 38.6 °F 39.0 °F 82% 30.14 in 10.0 mi SSW 10.4 mph 19.6 mph N/A   Clear
2:56 PM 44.1 °F 37.7 °F 39.0 °F 82% 30.13 in 10.0 mi South 12.7 mph 20.7 mph N/A   Mostly Cloudy
3:56 PM 43.0 °F 36.0 °F 37.9 °F 82% 30.14 in 10.0 mi SSW 13.8 mph 20.7 mph N/A   Overcast
4:56 PM 42.1 °F 35.2 °F 37.9 °F 85% 30.14 in 10.0 mi South 12.7 mph - N/A   Mostly Cloudy
5:56 PM 42.1 °F 36.1 °F 39.0 °F 89% 30.16 in 10.0 mi South 10.4 mph - N/A   Overcast
6:24 PM 42.8 °F 37.0 °F 39.2 °F 87% 30.15 in 10.0 mi SSW 10.4 mph - N/A   Overcast
6:56 PM 42.1 °F 35.7 °F 39.0 °F 89% 30.17 in 10.0 mi South 11.5 mph - N/A   Overcast
7:43 PM 41.0 °F 33.1 °F 39.2 °F 93% 30.14 in 10.0 mi South 15.0 mph - N/A   Overcast
7:48 PM 41.0 °F 33.1 °F 39.2 °F 93% 30.14 in 2.5 mi South 15.0 mph - N/A   Overcast
7:50 PM 41.0 °F 33.9 °F 39.2 °F 93% 30.15 in 1.2 mi South 12.7 mph - N/A   Overcast
7:56 PM 41.0 °F 33.5 °F 39.9 °F 96% 30.17 in 0.5 mi South 13.8 mph - N/A Fog Fog
8:03 PM 41.0 °F 33.5 °F 39.2 °F 93% 30.15 in 0.2 mi South 13.8 mph - N/A Fog Fog
8:30 PM 41.0 °F 33.1 °F 39.2 °F 93% 30.15 in 0.5 mi South 15.0 mph - N/A Fog Fog
8:56 PM 39.9 °F 31.8 °F 39.9 °F 100% 30.18 in 0.2 mi South 15.0 mph - N/A Fog Fog
9:52 PM 39.2 °F 31.6 °F 39.2 °F 100% 30.15 in 0.2 mi SSW 12.7 mph - 0.00 in Fog , Rain Light Rain
9:56 PM 39.9 °F 32.5 °F 39.0 °F 97% 30.17 in 0.2 mi SSW 12.7 mph - 0.00 in Fog , Rain Light Rain
10:26 PM 39.2 °F 31.2 °F 39.2 °F 100% 30.15 in 0.2 mi SSW 13.8 mph 20.7 mph 0.00 in Fog Fog
10:56 PM 39.9 °F 32.5 °F 39.9 °F 100% 30.17 in 0.2 mi South 12.7 mph 18.4 mph 0.01 in Fog , Rain Light Rain
11:34 PM 39.2 °F 30.8 °F 39.2 °F 100% 30.15 in 0.2 mi South 15.0 mph - 0.02 in Fog , Rain Light Rain
11:41 PM 39.2 °F 31.2 °F 39.2 °F 100% 30.15 in 0.2 mi South 13.8 mph 20.7 mph 0.02 in Fog , Rain Light Rain
11:56 PM 39.9 °F 32.9 °F 39.9 °F 100% 30.17 in 0.2 mi South 11.5 mph - 0.03 in Fog , Rain Light Rain